Погода в Омске

Погода в Омске : погода сейчас, прогноз погоды и архив. Всё, что Вы хотите узнать о погоде в Омске!

Хотите узнать прогноз погоды в Омске? Тогда Вам сюда: Погода в Омске

Поиск расширенной информации на нашем сайте:

Другие новости

Новости СМИ2

Главная страница сайта

Новости сайта

03.07.2017

Напоминаем, что на нашем специализированном сайте Метеоцентр.Азия вы можете получить высокодетализированные автоматические прогнозы погоды по пунктам России, СНГ и мира в авиационном формате (включающие направление и скорость ветра, видимость, явления погоды, количество и форму облачности, нижнюю и верхнюю границу облачности).

Рекомендуем: Оптовка: печное литье балезино.

Погода в Омске - сегодня

Время (UTC), дата Ветер
(°,м/с) 
Видим.   Явления Облачность Т
(°С)
Тd
(°С)
f(%) Тe
(°С)
Pmin
(гПа)
dP
(гПа)
Po
(мм)
O2
(г/м3)
Тmin Tmax R s Состояние
почвы
03 16.09.17 250 (З) 20000 м    8/0 верхняя 
[Cc]
+14.7 +8.1 65 +15  1014.3  1.5  750  285  +12.6         
06 16.09.17 290 (З) 20000 м    6/0 верхняя 
[Cc]
+18.9 +6.7 45 +20  1015.2  751  282           
09 16.09.17 300 (СЗ) 20000 м    8/0 верхняя 
[Ci fib]
+20.7 +6.6 40 +21  1015.4  0.4  751  280           
12 16.09.17 250 (З) 20000 м    3/0 верхняя 
[Ci fib]
+20.6 +6.8 41 +21  1015.8  0.3  751  280           
15 16.09.17 тихо ()   10 км    ясно 
+11.8 +8.6 81 +12  1017.1  0.9  752  289    +21.2       
18 16.09.17 180 (Ю) 10 км    ясно 
+10.8 +8.5 86 +12  1016.7  -0.5  751  290           
21 16.09.17 200 (Ю) 10 км    ясно 
+10.1 +7.9 86 +11  1015.8  -0.9  751  290           
00 17.09.17 190 (Ю) 10 км    3/0 средняя, верхняя 
[Ac lent|Ci fib]
+10.7 +6.8 77 +12  1014.5  -1.2  750  290           
03 17.09.17 170 (Ю) 20000 м    10/0 верхняя 
[Ci fib]
+14.1 +6.9 62 +15  1012.3  -2  748  286  +10         
06 17.09.17 190 (Ю) 20000 м    4/0 верхняя 
[Ci fib]
+22 +8.7 43 +22  1010.2  -1.7  747  277           
09 17.09.17 220 (ЮЗ) 20000 м    10/4 600 м средняя, верхняя 
[Sc|Ac trans|Ci fib]
+24.4 +9.7 39 +25  1009.4  -0.7  747  274           
12 17.09.17 230 (ЮЗ) 20000 м    10/4 600 м средняя, верхняя 
[Sc|Ac cast|Ci fib]
+23.3 +7.4 36 +23  1009  -0.4  746  276           
18 17.09.17 220 (ЮЗ) 10 км    4/0 средняя, верхняя 
[Ac trans|Ci fib]
+15.2 +7.7 61 +17  1010.8  0.3  747  284           
21 17.09.17 230 (ЮЗ) 10 км    ясно 
+10.9 +6.6 75 +12  1011  747  288           
00 18.09.17 250 (З) 10 км  местами туман поземный  ясно 
+9.2 +6 80 +10  1011.5  0.3  748  290           
03 18.09.17 260 (З) 20000 м    1/0 верхняя 
[Ci fib]
+11.8 +6.3 69 +13  1011.3  748  288  +7.6         
06 18.09.17 270 (З) 20000 м    10/0 средняя, верхняя 
[Ac lent|Cs]
+15.2 +6 54 +16  1010.8  -0.4  747  284           
09 18.09.17 260 (З) 20000 м    10/6 600 м кучево-дожд., средняя 
[Cb cap|Ac As]
+15.9 +5.6 50 +16  1010.4  -0.3  747  284           
12 18.09.17 270 (З) 20000 м    8/8 600 м 
[Sc]
+15.3 +5.8 53 +16  1009.9  -0.5  747  284           
15 18.09.17 250 (З) 10 км    8/0 средняя 
[Ac trans]
+12.1 +6.4 68 +13  1010.8  0.7  747  287    +16.3       
18 18.09.17 290 (З) 10 км    10/0 средняя 
[Ac und]
+11.6 +7.2 74 +12  1011.4  0.6  748  288           
21 18.09.17 310 (СЗ) 10 км  {ливн. осадки}  3/0 средняя 
[Ac lent]
+9.9 +7.2 83 +10  1012.4  0.9  748  290           
00 19.09.17 300 (СЗ) 10 км  {ливн. осадки}  9/0 средняя 
[Ac trans]
+9 +6 81 +9  1014.5  750  291           
03 19.09.17 270 (З) 20000 м    8/1 600 м средняя, верхняя 
[Sc|Ac As|Ci fib]
+9.4 +5.2 75 +9  1016.3  1.9  751  292  +7.9    0.4     
06 19.09.17 280 (З) 4-10{10}  20000 м    10/10 840 м кучево-дожд. 
[Cb cap]
+10.3 +3.5 63 +9  1018  1.7  752  292           
Время (UTC), дата Ветер
(°,м/с) 
Видим.   Явления Облачность Т
(°С)
Тd
(°С)
f(%) Тe
(°С)
Pmin
(гПа)
dP
(гПа)
Po
(мм)
O2
(г/м3)
Тmin Tmax R s Состояние
почвы

Для получения пояснительной информации подведите курсор к названию столбца.

ПОГОДА в Омске - архив

Всё, что Вы хотите узнать о погоде в Омске - удобно и подробно!

Выберите нужную дату (начиная с 1 января 2015* года) и нажмите кнопку "Найти".
Будут отображены архивные сводки погоды по пункту Омск, начиная с указанной даты.


Отображать данные в формате CSV (для использования в таблицах Excel)


Внимание! Наш архив погоды предназначен исключительно для личного некоммерческого использования в познавательных целях. Если Вам необходимы официальные справки о состоянии погоды (для производственных, юридических, коммерческих и т.п. целей), обращайтесь в органы Росгидромета.

*Примечание: данная дата относится к архиву по метеостанциям СССР (Россия, СНГ, Балтия).
Архив по метеостанциям Зарубежной Европы и Азии (кроме Китая) хранится 10 дней, по другим регионам земного шара (Китай, Африка, Америка, Австралия, Океания) - 1 день.

Омск - район местоположения метеостанции


Название, широта, долгота, высота метеостанции:
Омск (город) 55°ш. 73.4°д. 122 м над ур. моря [Российская Федерация]

Дополнительная информация

В oтличие oт бoльшинства пoгoдных сайтoв мы публикуем пoдрoбную метеoинфoрмацию в детальнoм прoфессиoнальнoм фoрмате.

Характеристики температуры и влажнoсти вoздуха измеряются на высoте 2 м в тени вдали oт зданий и деревьев.
Скoрoсть ветра измеряется на высoте 10 м (на урoвне рoста челoвека скoрoсть ветра ниже в 1.5-2 раза). Если метеoстанция нахoдится в гoрoде или в лесу, тo скoрoсть ветра занижена на 2-4 м/с пo сравнению с oткрытым местoм. Скoрoсть ветра над акватoриями крупных рек и oзёр, а также на вершинах хoлмoв на 2-5 м/с выше, чем в oбычных услoвиях.
Атмoсфернoе давление в разных тoчках местнoсти мoжет значительнo oтличаться oт давления на метеoстанции, в зависимoсти oт услoвий рельефа (при пoдъёме на 10 м давление пoнижается примернo на 1 мм рт.ст.).